Location: Ravensburg
(47.7866°N, 9.6124°E)
Time: 13:59:24
(UTC+02:00)

AO-91 - Pass Details

Date: 19 March 2026
Orbit: 425 x 637 km, 97.5° (Epoch: 14 April)

Event Time Altitude Azimuth Distance (km) Brightness Sun altitude
Rises 22:09:55 0° 6° (N) 2,951 ? -33.7°
Reaches altitude 10° 22:12:17 10° 358° (N) 2,028 ? -34.0°
Enters shadow 22:13:56 21° 345° (NNW) 1,442 ? -34.2°
